KF4PPJ Weather Reports


time (UTC)temp
C
wind
direction
speed
KPH
gust
KPH
rain 1hr
cm
rain 24hr
cm
rain mn
cm
humidity
%
barometer
mb
20260901183011 17 176 6.4 11.3 0.00 0.00 0.00 76 1013.5
20260901182507 17 250 8.0 12.9 0.00 0.00 0.00 76 1013.5
20260901182007 17 191 4.8 9.7 0.00 0.00 0.00 76 1013.3
20260901181506 17 165 3.2 8.0 0.00 0.00 0.00 76 1013.4
20260901181005 17 174 0.0 4.8 0.00 0.00 0.00 77 1013.5
20260901180504 17 226 6.4 8.0 0.00 0.00 0.00 77 1013.2
20260901180003 17 201 8.0 9.7 0.00 0.00 0.00 77 1013.4
20260901175458 17 193 4.8 8.0 0.00 0.00 0.00 78 1013.2
20260901174953 17 159 1.6 9.7 0.00 0.00 0.00 79 1013.3
20260901174448 17 255 4.8 8.0 0.00 0.00 0.00 79 1013.1
20260901173944 17 199 4.8 11.3 0.00 0.00 0.00 79 1013.0
20260901173439 17 216 8.0 9.7 0.00 0.00 0.00 79 1013.1
20260901172936 17 179 4.8 11.3 0.00 0.00 0.00 78 1013.0
20260901172431 17 206 8.0 11.3 0.00 0.00 0.00 77 1013.2
20260901171929 17 176 4.8 9.7 0.00 0.00 0.00 77 1013.3
20260901171427 17 186 3.2 9.7 0.00 0.00 0.00 79 1012.9
20260901170926 17 179 8.0 11.3 0.00 0.00 0.00 79 1013.1
20260901170416 16 180 1.6 11.3 0.00 0.00 0.00 80 1013.2
20260901165915 16 188 6.4 11.3 0.00 0.00 0.00 81 1013.1
20260901165409 16 187 6.4 11.3 0.00 0.00 0.00 81 1013.0
20260901164901 16 173 4.8 4.8 0.00 0.00 0.00 82 1013.3
20260901164355 16 212 6.4 9.7 0.00 0.00 0.00 82 1013.4
20260901163855 16 199 4.8 9.7 0.00 0.00 0.00 83 1013.4
20260901163350 16 172 0.0 4.8 0.00 0.00 0.00 84 1013.4
20260901162845 16 174 3.2 11.3 0.00 0.00 0.00 84 1013.4
20260901162344 16 170 6.4 8.0 0.00 0.00 0.00 84 1013.1
20260901161843 15 173 3.2 9.7 0.00 0.00 0.00 85 1013.4
20260901161338 15 188 4.8 8.0 0.00 0.00 0.00 85 1013.4
20260901160833 15 185 0.0 9.7 0.00 0.00 0.00 85 1013.4
20260901160330 15 209 4.8 9.7 0.00 0.00 0.00 86 1013.3
20260901155828 15 161 3.2 11.3 0.00 0.00 0.00 86 1013.4
20260901155323 15 131 1.6 4.8 0.00 0.00 0.00 87 1013.3
20260901154820 15 204 4.8 4.8 0.00 0.00 0.00 87 1013.5
20260901154313 15 168 3.2 4.8 0.00 0.00 0.00 88 1013.4
20260901153808 15 190 4.8 9.7 0.00 0.00 0.00 88 1013.5
20260901153308 15 155 4.8 4.8 0.00 0.00 0.00 89 1013.7
20260901152807 15 207 3.2 8.0 0.00 0.00 0.00 89 1013.6
20260901152306 15 155 1.6 4.8 0.00 0.00 0.00 89 1013.7
20260901151802 15 135 4.8 4.8 0.00 0.00 0.00 89 1013.4
20260901151301 15 190 4.8 4.8 0.00 0.00 0.00 90 1013.5
20260901150755 15 187 3.2 4.8 0.00 0.00 0.00 90 1013.7
20260901150253 15 193 4.8 4.8 0.00 0.00 0.00 90 1013.5
20260901145751 15 189 8.0 9.7 0.00 0.00 0.00 91 1013.6
20260901145245 15 169 4.8 8.0 0.00 0.00 0.00 91 1013.3
20260901144741 14 200 4.8 4.8 0.00 0.00 0.00 92 1013.6
20260901144236 14 229 4.8 9.7 0.00 0.00 0.00 92 1013.2
20260901143732 14 183 3.2 11.3 0.00 0.00 0.00 93 1013.3
20260901143227 14 161 6.4 9.7 0.00 0.00 0.00 93 1013.2
20260901142724 14 205 1.6 4.8 0.00 0.00 0.00 94 1013.2
20260901142223 14 173 1.6 1.6 0.00 0.00 0.00 94 1013.2
20260901141719 14 180 1.6 4.8 0.00 0.00 0.00 95 1013.2
20260901141219 13 169 1.6 3.2 0.00 0.00 0.00 95 1013.0
20260901140718 13 146 3.2 3.2 0.00 0.00 0.00 95 1013.0
20260901140217 13 169 4.8 4.8 0.00 0.00 0.00 96 1012.9
20260901135712 13 172 1.6 4.8 0.00 0.00 0.00 96 1012.7
20260901135211 13 203 4.8 8.0 0.00 0.00 0.00 96 1013.1
20260901134708 13 150 1.6 4.8 0.00 0.00 0.00 96 1012.8
20260901134202 13 186 1.6 3.2 0.00 0.00 0.00 96 1012.8
20260901133702 13 173 0.0 4.8 0.00 0.00 0.00 96 1012.9
20260901133201 13 157 0.0 1.6 0.00 0.00 0.00 96 1013.1
20260901132700 12 150 1.6 4.8 0.00 0.00 0.00 97 1013.1
20260901132155 12 136 1.6 4.8 0.00 0.00 0.00 97 1012.9
20260901131650 11 162 0.0 0.0 0.00 0.00 0.00 96 1013.0
20260901131149 12 161 0.0 0.0 0.00 0.00 0.00 96 1012.8
20260901130644 12 149 0.0 0.0 0.00 0.00 0.00 96 1012.8
20260901130143 11 152 0.0 0.0 0.00 0.00 0.00 96 1013.1
20260901125641 11 152 0.0 0.0 0.00 0.00 0.00 96 1012.8
20260901125136 12 146 0.0 0.0 0.00 0.00 0.00 96 1012.9
20260901124632 11 155 0.0 0.0 0.00 0.00 0.00 96 1012.8
20260901124131 11 169 0.0 0.0 0.00 0.00 0.00 96 1012.7
20260901123626 11 154 0.0 0.0 0.00 0.00 0.00 96 1012.7
20260901123126 12 154 0.0 0.0 0.00 0.00 0.00 96 1012.7
20260901122624 12 154 0.0 0.0 0.00 0.00 0.00 96 1012.7
20260901122119 12 153 0.0 0.0 0.00 0.00 0.00 96 1012.4
20260901121614 12 153 0.0 0.0 0.00 0.00 0.00 96 1012.7
20260901121109 12 153 0.0 0.0 0.00 0.00 0.00 96 1012.7
20260901120608 12 146 0.0 0.0 0.00 0.00 0.00 96 1012.5
20260901120104 12 157 0.0 0.0 0.00 0.00 0.00 96 1012.5
20260901115559 12 147 0.0 0.0 0.00 0.00 0.00 96 1012.3
20260901115055 12 154 0.0 0.0 0.00 0.00 0.00 96 1012.1
20260901114551 12 148 0.0 0.0 0.00 0.00 0.00 96 1012.3
20260901114050 12 154 0.0 0.0 0.00 0.00 0.00 96 1012.2
20260901113549 12 151 0.0 0.0 0.00 0.00 0.00 96 1012.2
20260901113045 12 156 0.0 0.0 0.00 0.00 0.00 95 1012.3
20260901112545 12 158 0.0 0.0 0.00 0.00 0.00 95 1012.2
20260901112039 12 148 0.0 0.0 0.00 0.00 0.00 96 1012.2
20260901111538 12 148 0.0 0.0 0.00 0.00 0.00 96 1012.0
20260901111037 12 149 0.0 0.0 0.00 0.00 0.00 95 1012.3
20260901110533 12 147 0.0 0.0 0.00 0.00 0.00 95 1012.2
20260901110028 12 152 0.0 0.0 0.00 0.00 0.00 95 1012.0
20260901105525 12 149 0.0 0.0 0.00 0.00 0.00 95 1012.2
20260901105024 12 148 0.0 0.0 0.00 0.00 0.00 95 1012.2
20260901104521 12 149 0.0 0.0 0.00 0.00 0.00 95 1012.3
20260901104015 12 149 0.0 0.0 0.00 0.00 0.00 95 1012.1
20260901103510 12 150 0.0 0.0 0.00 0.00 0.00 95 1012.0
20260901103006 12 152 0.0 0.0 0.00 0.00 0.00 95 1012.1
20260901102505 12 152 0.0 0.0 0.00 0.00 0.00 95 1012.1
20260901102000 12 152 0.0 0.0 0.00 0.00 0.00 95 1012.1
20260901101455 12 152 0.0 0.0 0.00 0.00 0.00 95 1012.2
20260901100949 12 152 0.0 0.0 0.00 0.00 0.00 95 1012.1
20260901100444 12 152 0.0 0.0 0.00 0.00 0.00 95 1012.2
20260901095938 12 152 0.0 0.0 0.00 0.00 0.00 95 1011.9
20260901095437 12 152 0.0 0.0 0.00 0.00 0.00 95 1011.8
20260901094930 12 152 0.0 0.0 0.00 0.00 0.00 94 1011.8
20260901094429 12 151 0.0 0.0 0.00 0.00 0.00 94 1011.9
20260901093924 12 152 0.0 0.0 0.00 0.00 0.00 94 1011.8
20260901093423 12 153 0.0 0.0 0.00 0.00 0.00 94 1011.7
20260901092913 12 152 0.0 0.0 0.00 0.00 0.00 94 1011.8
20260901092409 12 151 0.0 0.0 0.00 0.00 0.00 94 1011.9
20260901091904 12 152 0.0 0.0 0.00 0.00 0.00 94 1011.6
20260901091358 12 151 0.0 0.0 0.00 0.00 0.00 94 1011.6
20260901090853 12 150 0.0 0.0 0.00 0.00 0.00 93 1011.8
20260901090348 12 150 0.0 0.0 0.00 0.00 0.00 93 1011.8
20260901085844 12 150 0.0 0.0 0.00 0.00 0.00 93 1011.8
20260901085339 12 147 0.0 0.0 0.00 0.00 0.00 93 1011.8
20260901084835 13 153 0.0 0.0 0.00 0.00 0.00 93 1011.8
20260901084331 13 156 0.0 0.0 0.00 0.00 0.00 93 1011.7
20260901083826 13 140 0.0 0.0 0.00 0.00 0.00 93 1011.7
20260901083321 13 153 0.0 0.0 0.00 0.00 0.00 93 1011.6
20260901082819 13 151 0.0 0.0 0.00 0.00 0.00 93 1011.6
20260901082315 13 152 0.0 0.0 0.00 0.00 0.00 93 1011.7
20260901081809 13 154 0.0 0.0 0.00 0.00 0.00 93 1011.6
20260901081304 13 154 0.0 0.0 0.00 0.00 0.00 93 1011.7
20260901080759 13 158 0.0 0.0 0.00 0.00 0.00 92 1011.6
20260901080258 13 151 0.0 0.0 0.00 0.00 0.00 92 1011.6
20260901075752 13 161 0.0 0.0 0.00 0.00 0.00 92 1011.5
20260901075247 13 160 0.0 0.0 0.00 0.00 0.00 92 1011.4
20260901074742 13 160 0.0 0.0 0.00 0.00 0.00 92 1011.2
20260901074237 13 147 0.0 0.0 0.00 0.00 0.00 92 1011.1
20260901073733 13 145 0.0 0.0 0.00 0.00 0.00 92 1011.2
20260901073229 13 145 0.0 0.0 0.00 0.00 0.00 92 1011.1
20260901072724 13 154 0.0 0.0 0.00 0.00 0.00 91 1011.5
20260901072218 13 155 0.0 0.0 0.00 0.00 0.00 91 1011.4
20260901071713 13 153 0.0 0.0 0.00 0.00 0.00 91 1011.5
20260901071212 13 153 0.0 0.0 0.00 0.00 0.00 91 1011.0
20260901070706 13 153 0.0 0.0 0.00 0.00 0.00 91 1011.4
20260901070202 13 153 0.0 0.0 0.00 0.00 0.00 91 1011.2
20260901065700 13 154 0.0 0.0 0.00 0.00 0.00 90 1011.2
20260901065155 13 154 0.0 0.0 0.00 0.00 0.00 90 1011.4
20260901064652 13 154 0.0 0.0 0.00 0.00 0.00 90 1011.1
20260901064149 13 153 0.0 0.0 0.00 0.00 0.00 89 1011.3
20260901063646 13 152 0.0 0.0 0.00 0.00 0.00 89 1011.1
20260901063141 14 163 0.0 0.0 0.00 0.00 0.00 89 1011.3
20260901062637 14 152 0.0 0.0 0.00 0.00 0.00 89 1011.2
20260901062133 14 151 0.0 0.0 0.00 0.00 0.00 89 1011.3
20260901061629 14 155 0.0 0.0 0.00 0.00 0.00 88 1011.4
20260901061129 14 153 0.0 0.0 0.00 0.00 0.00 88 1011.3
20260901060623 14 153 0.0 0.0 0.00 0.00 0.00 87 1011.5
20260901060120 15 154 0.0 0.0 0.00 0.00 0.00 87 1011.3
20260901055619 15 164 0.0 0.0 0.00 0.00 0.00 87 1011.5
20260901055116 15 156 0.0 0.0 0.00 0.00 0.00 87 1011.5
20260901054613 15 152 0.0 0.0 0.00 0.00 0.00 86 1011.5
20260901054109 15 152 0.0 0.0 0.00 0.00 0.00 85 1011.5
20260901053605 15 152 0.0 0.0 0.00 0.00 0.00 85 1011.5
20260901053100 15 152 0.0 0.0 0.00 0.00 0.00 84 1011.3
20260901052555 15 151 0.0 0.0 0.00 0.00 0.00 83 1011.5
20260901052049 15 160 0.0 0.0 0.00 0.00 0.00 82 1011.5
20260901051544 16 153 0.0 0.0 0.00 0.00 0.00 82 1011.4
20260901051043 16 100 4.8 4.8 0.00 0.00 0.00 82 1011.5
20260901050538 16 140 0.0 1.6 0.00 0.00 0.00 82 1011.7
20260901050033 16 153 0.0 1.6 0.00 0.00 0.00 81 1011.6
20260901045529 16 154 0.0 0.0 0.00 0.00 0.00 81 1011.5
20260901045029 16 146 0.0 0.0 0.00 0.00 0.00 82 1011.4
20260901044525 16 148 0.0 0.0 0.00 0.00 0.00 81 1011.4
20260901044020 16 153 0.0 0.0 0.00 0.00 0.00 81 1011.5
20260901043516 16 153 0.0 0.0 0.00 0.00 0.00 80 1011.7
20260901043011 16 130 0.0 0.0 0.00 0.00 0.00 79 1011.6
20260901042510 16 145 0.0 1.6 0.00 0.00 0.00 79 1011.6
20260901042006 16 180 1.6 3.2 0.00 0.00 0.00 80 1011.7
20260901041507 16 159 0.0 1.6 0.00 0.00 0.00 80 1011.7
20260901041001 16 145 0.0 1.6 0.00 0.00 0.00 79 1011.8
20260901040456 16 138 0.0 0.0 0.00 0.00 0.00 79 1011.7
20260901035954 16 155 0.0 1.6 0.00 0.00 0.00 78 1011.7
20260901035453 16 168 1.6 1.6 0.00 0.00 0.00 77 1011.4
20260901034952 16 162 0.0 1.6 0.00 0.00 0.00 77 1011.3
20260901034452 17 154 0.0 0.0 0.00 0.00 0.00 76 1011.5
20260901033948 17 152 0.0 1.6 0.00 0.00 0.00 75 1011.3
20260901033446 17 146 1.6 1.6 0.00 0.00 0.00 75 1011.2
20260901032945 17 152 0.0 1.6 0.00 0.00 0.00 74 1011.0
20260901032439 17 145 1.6 3.2 0.00 0.00 0.00 73 1011.2
20260901031934 17 162 0.0 1.6 0.00 0.00 0.00 72 1011.0
20260901031430 18 160 0.0 1.6 0.00 0.00 0.00 71 1011.0
20260901030924 18 159 0.0 1.6 0.00 0.00 0.00 69 1011.1
20260901030420 18 155 0.0 0.0 0.00 0.00 0.00 67 1011.1
20260901025918 19 157 0.0 3.2 0.00 0.00 0.00 67 1011.0
20260901025414 20 154 0.0 1.6 0.00 0.00 0.00 65 1010.8
20260901024908 20 135 1.6 4.8 0.00 0.00 0.00 64 1010.9
20260901024407 20 155 0.0 1.6 0.00 0.00 0.00 61 1010.9
20260901023906 20 157 0.0 4.8 0.00 0.00 0.00 62 1010.8
20260901023401 20 157 0.0 4.8 0.00 0.00 0.00 60 1011.1
20260901022856 20 156 0.0 1.6 0.00 0.00 0.00 61 1011.2
20260901022352 20 168 0.0 3.2 0.00 0.00 0.00 60 1011.0
20260901021842 21 136 1.6 3.2 0.00 0.00 0.00 59 1010.9
20260901021337 21 150 0.0 8.0 0.00 0.00 0.00 61 1010.8
20260901020831 21 174 1.6 3.2 0.00 0.00 0.00 60 1011.0
20260901020327 21 158 0.0 3.2 0.00 0.00 0.00 60 1011.1
20260901015821 21 173 1.6 1.6 0.00 0.00 0.00 60 1011.0
20260901015318 21 206 1.6 3.2 0.00 0.00 0.00 59 1011.0
20260901014811 21 135 8.0 11.3 0.00 0.00 0.00 59 1011.0
20260901014308 21 159 4.8 4.8 0.00 0.00 0.00 59 1010.8
20260901013803 21 140 1.6 3.2 0.00 0.00 0.00 59 1011.0
20260901013258 22 282 4.8 8.0 0.00 0.00 0.00 58 1010.9
20260901012754 22 126 3.2 9.7 0.00 0.00 0.00 57 1011.1
20260901012253 22 171 3.2 4.8 0.00 0.00 0.00 57 1011.1
20260901011749 22 140 1.6 3.2 0.00 0.00 0.00 57 1011.0
20260901011244 22 97 4.8 8.0 0.00 0.00 0.00 57 1011.0
20260901010738 22 330 4.8 8.0 0.00 0.00 0.00 56 1011.0
20260901010233 22 154 3.2 9.7 0.00 0.00 0.00 56 1010.8
20260901005732 23 144 3.2 9.7 0.00 0.00 0.00 55 1010.8
20260901005227 23 11 4.8 8.0 0.00 0.00 0.00 53 1011.0
20260901004727 25 169 4.8 4.8 0.00 0.00 0.00 52 1010.9
20260901004221 25 210 4.8 8.0 0.00 0.00 0.00 51 1011.0
20260901003716 25 226 4.8 9.7 0.00 0.00 0.00 50 1011.0
20260901003216 26 270 4.8 8.0 0.00 0.00 0.00 49 1011.0
20260901002714 26 222 4.8 9.7 0.00 0.00 0.00 48 1010.9
20260901002209 26 146 1.6 9.7 0.00 0.00 0.00 47 1011.1
20260901001705 25 187 1.6 8.0 0.00 0.00 0.00 48 1011.2
20260901001200 25 50 3.2 8.0 0.00 0.00 0.00 48 1011.1
20260901000650 25 197 4.8 4.8 0.00 0.00 0.00 49 1011.2
20260901000145 25 348 6.4 11.3 0.00 0.00 0.00 48 1011.2
20260831235643 26 307 4.8 9.7 0.00 0.00 0.00 47 1011.3
20260831235140 25 150 3.2 4.8 0.00 0.00 0.00 48 1011.3
20260831234638 25 99 4.8 11.3 0.00 0.00 0.00 47 1011.3
20260831234134 25 155 3.2 8.0 0.00 0.00 0.00 47 1011.4
20260831233624 25 140 0.0 3.2 0.00 0.00 0.00 48 1011.3
20260831233120 25 358 3.2 12.9 0.00 0.00 0.00 47 1011.5
20260831232615 25 164 3.2 4.8 0.00 0.00 0.00 48 1011.4
20260831232111 25 184 6.4 9.7 0.00 0.00 0.00 46 1011.5
20260831231607 25 315 6.4 8.0 0.00 0.00 0.00 46 1011.7
20260831231102 25 145 0.0 11.3 0.00 0.00 0.00 45 1011.6
20260831230557 26 352 4.8 11.3 0.00 0.00 0.00 45 1011.6
20260831230051 26 152 4.8 4.8 0.00 0.00 0.00 45 1011.6
20260831225547 25 184 1.6 3.2 0.00 0.00 0.00 46 1011.8
20260831225042 25 114 3.2 8.0 0.00 0.00 0.00 46 1011.8
20260831224537 25 209 3.2 8.0 0.00 0.00 0.00 48 1011.9
20260831224033 24 154 3.2 8.0 0.00 0.00 0.00 49 1012.1
20260831223528 25 135 1.6 4.8 0.00 0.00 0.00 49 1012.1
20260831223024 25 215 4.8 16.1 0.00 0.00 0.00 49 1012.0
20260831222520 25 227 8.0 9.7 0.00 0.00 0.00 49 1012.1
20260831222019 25 110 1.6 8.0 0.00 0.00 0.00 50 1012.2
20260831221515 25 42 4.8 9.7 0.00 0.00 0.00 50 1012.3
20260831221010 25 172 3.2 8.0 0.00 0.00 0.00 50 1012.4
20260831220505 23 160 4.8 9.7 0.00 0.00 0.00 52 1012.5
20260831220001 23 4 8.0 11.3 0.00 0.00 0.00 52 1012.3
20260831215456 23 348 4.8 11.3 0.00 0.00 0.00 53 1012.8
20260831214952 23 213 6.4 9.7 0.00 0.00 0.00 53 1012.5
20260831214449 23 200 6.4 8.0 0.00 0.00 0.00 54 1012.6
20260831213945 23 290 6.4 14.5 0.00 0.00 0.00 54 1012.7
20260831213442 23 208 6.4 8.0 0.00 0.00 0.00 55 1012.8
20260831212941 23 220 4.8 11.3 0.00 0.00 0.00 54 1013.0
20260831212437 23 240 9.7 12.9 0.00 0.00 0.00 53 1013.0
20260831211936 23 170 3.2 9.7 0.00 0.00 0.00 54 1012.9
20260831211432 23 203 6.4 11.3 0.00 0.00 0.00 53 1012.9
20260831210925 23 142 6.4 8.0 0.00 0.00 0.00 53 1012.9
20260831210421 23 212 8.0 14.5 0.00 0.00 0.00 53 1013.0
20260831205916 23 226 3.2 9.7 0.00 0.00 0.00 53 1013.1
20260831205412 23 230 3.2 9.7 0.00 0.00 0.00 54 1013.3
20260831204907 23 193 3.2 8.0 0.00 0.00 0.00 54 1013.1
20260831204406 23 47 3.2 12.9 0.00 0.00 0.00 52 1013.3
20260831203905 23 82 1.6 3.2 0.00 0.00 0.00 53 1013.6
20260831203400 23 190 1.6 4.8 0.00 0.00 0.00 53 1013.6
20260831202858 22 110 1.6 3.2 0.00 0.00 0.00 55 1013.4
20260831202354 22 124 6.4 9.7 0.00 0.00 0.00 56 1013.5
20260831201853 22 349 3.2 9.7 0.00 0.00 0.00 57 1013.5
20260831201352 22 358 11.3 16.1 0.00 0.00 0.00 55 1013.9
20260831200848 22 171 3.2 8.0 0.00 0.00 0.00 56 1013.9
20260831200343 22 342 8.0 16.1 0.00 0.00 0.00 57 1013.9
20260831195838 22 7 8.0 11.3 0.00 0.00 0.00 58 1013.8
20260831195334 22 282 8.0 11.3 0.00 0.00 0.00 58 1013.9
20260831194829 21 158 1.6 11.3 0.00 0.00 0.00 59 1014.1
20260831194324 22 340 6.4 11.3 0.00 0.00 0.00 58 1014.2
20260831193824 22 147 4.8 12.9 0.00 0.00 0.00 59 1014.2
20260831193319 21 176 1.6 12.9 0.00 0.00 0.00 59 1014.3
20260831192814 21 202 1.6 8.0 0.00 0.00 0.00 60 1014.2
20260831192309 21 231 4.8 9.7 0.00 0.00 0.00 61 1014.6
20260831191805 21 18 6.4 11.3 0.00 0.00 0.00 59 1014.4
20260831191301 21 144 6.4 11.3 0.00 0.00 0.00 60 1014.6
20260831190757 21 75 3.2 14.5 0.00 0.00 0.00 59 1014.8
20260831190256 21 93 3.2 8.0 0.00 0.00 0.00 60 1014.7
20260831185751 21 238 4.8 14.5 0.00 0.00 0.00 60 1014.9
20260831185247 21 77 6.4 14.5 0.00 0.00 0.00 61 1014.9
20260831184745 21 321 8.0 20.9 0.00 0.00 0.00 60 1015.3
20260831184242 21 193 8.0 11.3 0.00 0.00 0.00 60 1015.0
20260831183742 21 152 4.8 8.0 0.00 0.00 0.00 60 1014.9